Regional Weather Roundup
Issued by NWS

Home | Current Version | Previous Version | Text Only | Print | Product List | Glossary On
Versions: 1 2 3 4 5 6 7 8 9 10 11 12 13 14 15 16 17 18 19 20 21 22 23 24 25 26 27 28 29 30 31 32 33 34 35 36 37 38 39 40 41 42 43 44 45 46 47 48 49 50
000
ASUS43 KIND 281259
RWRIN

WEATHER ROUNDUP FOR INDIANA
NATIONAL WEATHER SERVICE INDIANAPOLIS IN
800 AM EST SUN DEC 28 2014

NOTE: "FAIR" INDICATES FEW OR NO CLOUDS BELOW 12,000 FEET WITH NO
SIGNIFICANT WEATHER AND/OR OBSTRUCTIONS TO VISIBILITY.

* - STATION DOES NOT REPORT WEATHER SUCH AS PRECIPITATION OR FOG.

+ - STATION NOT QUALITY CONTROLLED BY THE NATIONAL WEATHER SERVICE.
    USE DATA WITH CAUTION...ESPECIALLY DEWPOINT AND RELATIVE
    HUMIDITY OBSERVATIONS.

INZ001>003-010>013-019-020-281400-
NORTHWEST INDIANA

CITY           SKY/WX    TMP DP  RH WIND       PRES   REMARKS
GARY /AIRPORT/ CLOUDY    28  19  69 W8        30.16R WCI  20
KNOX *+        CLOUDY    31  23  73 W5        30.13F WCI  26
VALPARAISO     NOT AVBL

$$

LMZ046-743>745-281400-
SOUTHERN LAKE MICHIGAN

STATION/POSITION TIME  TEMP WIND        PRES
                       AIR  DIR/SP/G
                 (UTC) (F)  (DEG/KT/KT) (MB)
MICHIGAN CITY    1200   31  290/ 11/ 14   N/A

$$

INZ004-005-014>016-021>024-281400-
NORTH CENTRAL INDIANA

CITY           SKY/WX    TMP DP  RH WIND       PRES   REMARKS
GOSHEN         CLOUDY    33  25  72 NW10      30.10S WCI  25
SOUTH BEND     CLOUDY    32  25  75 NW6       30.12F WCI  26
WARSAW +       CLOUDY    32  28  86 W9        30.11F WCI  24

$$

INZ006>009-017-018-025>027-281400-
NORTHEAST INDIANA

CITY           SKY/WX    TMP DP  RH WIND       PRES   REMARKS
ANGOLA *+      CLOUDY    34  27  75 NW6       30.08S WCI  29
FORT WAYNE     CLOUDY    33  30  88 W9        30.12R WCI  25

$$

INZ028-029-035-036-043>045-051>053-281400-
WEST CENTRAL INDIANA

CITY           SKY/WX    TMP DP  RH WIND       PRES   REMARKS
GREENCASTLE +  CLOUDY    30  25  80 NW6       30.15F WCI  24
LAFAYETTE      CLOUDY    28  25  88 NW6       30.16F WCI  22
TERRE HAUTE    CLOUDY    31  25  78 NW7       30.18S WCI  24

$$

INZ030>032-037>040-046>048-054>057-064-065-281400-
CENTRAL INDIANA

CITY           SKY/WX    TMP DP  RH WIND       PRES   REMARKS
CP ATTERBURY + CLOUDY    32  28  86 MISG      30.14F
COLUMBUS       CLOUDY    30  27  86 NW10      30.14F WCI  21
INDIANAPOLIS   CLOUDY    30  26  85 NW9       30.14S WCI  22
-EAGLE CREEK   CLOUDY    30  26  85 N8        30.14S WCI  22
KOKOMO *+      CLOUDY    30  25  80 W9        30.14R WCI  22
MT COMFORT *+  CLOUDY    32  27  80 NW13      30.13F WCI  22
SHELBYVILLE    CLOUDY    33  27  78 N12       30.13S WCI  24

$$

INZ033-034-041-042-049-050-058-059-281400-
EAST CENTRAL INDIANA

CITY           SKY/WX    TMP DP  RH WIND       PRES   REMARKS
MUNCIE         CLOUDY    32  27  81 NW8       30.12R WCI  25

$$

INZ060-061-067>069-081>083-085>088-281400-
SOUTHWEST INDIANA

CITY           SKY/WX    TMP DP  RH WIND       PRES   REMARKS
EVANSVILLE     CLOUDY    35  29  78 N6        30.20R WCI  30
HUNTINGBURG *+ CLOUDY    34  27  75 NW10G16   30.18R WCI  26

$$

INZ062-063-066-070>080-084-089>092-281400-
SOUTH CENTRAL AND SOUTHEAST INDIANA

CITY           SKY/WX    TMP DP  RH WIND       PRES   REMARKS
BLOOMINGTON    CLOUDY    31  28  89 NW5       30.15R WCI  26
SEYMOUR +      CLOUDY    34  32  93 N10       30.14S WCI  26

$$



USA.gov is the U.S. government's official web portal to all federal, state and local government web resources and services.